Home > Time Zones > World Clock > Weather > Spain > Palma > Past weeks

Flag for Spain Weather past 2 weeks in Palma, Majorca, Spain

Now
84 °F

Passing clouds.


Feels Like: 86 °F
Forecast: 65 / 83 °F
Wind: 15 mph from Northeast

Location: Palma De Mallorca / Son San Juan

Current Time: Aug 23, 2014 at 1:29:36 PM

Latest Report: Aug 23, 2014 at 1:00 PM


Visibility: N/A

Pressure: 30.04 "Hg

Humidity: 51%

Dew point: 64 °F

Location of PalmaLocation

Historic Weather in Palma — Graph

°F

Palma temperature yesterday

Maximum temperature yesterday: 86 °F (at 4:00 PM)
Minimum temperature yesterday: 55 °F (at 2:00 PM)
Average temperature yesterday: 77 °F

Past Weeks' High & Low Weather Summary

 TemperatureHumidityPressure
High97 °F (Aug 9, 2:30 PM)94% (Aug 10, 7:30 AM)30.18 "Hg (Aug 10, 7:30 AM)
Low52 °F (Aug 21, 10:00 AM)27% (Aug 9, 3:30 PM)29.77 "Hg (Aug 13, 6:00 AM)
Average78 °F70%29.96 "Hg
* Reported Aug 8 12:00 Noon — Aug 23 12:30 PM, Palma, Weather by CustomWeather, © 2014

Note: Actual official high and low records may vary slightly from our data, if they occured in-between our weather recording intervals... More about our weather records

Advertising

Palma weather history for previous 24 hours

 ConditionsComfort  
Time TempWeatherWind HumidityBarometerVisibility
12:30 PM
Aug 23
82 °FScattered clouds.13 mph55%30.04 "HgN/A
12:00 PM81 °FScattered clouds.13 mph58%30.04 "HgN/A
11:30 AM81 °FScattered clouds.12 mph58%30.04 "HgN/A
11:00 AM81 °FScattered clouds.10 mph58%30.04 "HgN/A
10:30 AM79 °FScattered clouds.13 mph61%30.04 "HgN/A
10:00 AM79 °FScattered clouds.14 mph61%30.04 "HgN/A
9:30 AM77 °FScattered clouds.15 mph65%30.01 "HgN/A
9:00 AM77 °FPassing clouds.10 mph65%30.01 "HgN/A
8:30 AM75 °FPassing clouds.8 mph69%30.01 "HgN/A
8:00 AM73 °FPassing clouds.6 mph74%30.01 "HgN/A
7:30 AM72 °FPassing clouds.2 mph78%29.98 "HgN/A
7:00 AM72 °FPassing clouds.3 mph78%29.98 "HgN/A
6:30 AM72 °FPassing clouds.3 mph78%29.98 "HgN/A
6:00 AM72 °FPassing clouds.3 mph78%29.95 "HgN/A
5:30 AM72 °FPassing clouds.8 mph78%29.95 "HgN/A
5:00 AM72 °FPassing clouds.9 mph78%29.95 "HgN/A
4:30 AM72 °FPassing clouds.10 mph78%29.95 "HgN/A
4:00 AM72 °FPassing clouds.12 mph78%29.95 "HgN/A
3:30 AM72 °FPassing clouds.8 mph83%29.95 "HgN/A
2:30 AM72 °FPassing clouds.2 mph83%29.95 "HgN/A
2:00 AM72 °FPassing clouds.3 mph83%29.95 "HgN/A
1:30 AM72 °FPassing clouds.No wind83%29.95 "HgN/A
1:00 AM73 °FPassing clouds.2 mph78%29.95 "HgN/A
12:30 AM73 °FPassing clouds.2 mph83%29.95 "HgN/A
12:00 AM73 °FPassing clouds.2 mph83%29.95 "HgN/A
11:30 PM
Aug 22
75 °FPassing clouds.2 mph78%29.95 "HgN/A
11:00 PM77 °FPassing clouds.1 mph74%29.92 "HgN/A
10:30 PM77 °FPassing clouds.1 mph79%29.92 "HgN/A
10:00 PM77 °FPassing clouds.3 mph74%29.92 "HgN/A
9:30 PM79 °FPassing clouds.2 mph70%29.92 "HgN/A
9:00 PM79 °FPassing clouds.5 mph70%29.92 "HgN/A
8:30 PM81 °FPassing clouds.8 mph66%29.92 "HgN/A
8:00 PM81 °FScattered clouds.8 mph66%29.92 "HgN/A
7:30 PM81 °FScattered clouds.8 mph70%29.92 "HgN/A
7:00 PM81 °FScattered clouds.9 mph66%29.92 "HgN/A
6:30 PM82 °FScattered clouds.12 mph62%29.92 "HgN/A
6:00 PM82 °FScattered clouds.15 mph66%29.92 "HgN/A
5:30 PM82 °FPassing clouds.17 mph66%29.92 "HgN/A
5:00 PM84 °FPassing clouds.15 mph66%29.95 "HgN/A
4:30 PM86 °FPassing clouds.15 mph59%29.92 "HgN/A
4:00 PM86 °FPassing clouds.17 mph59%29.95 "HgN/A
3:30 PM82 °FPassing clouds.13 mph66%29.95 "HgN/A
3:00 PM82 °FPassing clouds.16 mph66%29.95 "HgN/A
2:30 PM81 °FPassing clouds.14 mph66%29.95 "HgN/A
2:00 PM55 °FPassing clouds.14 mph72%29.98 "HgN/A
1:30 PM84 °FPassing clouds.5 mph58%29.98 "HgN/A
1:00 PM84 °FScattered clouds.7 mph58%29.98 "HgN/A
Weather by CustomWeather, © 2014

See weather overviewHow to use our weather pages